Regional Weather Roundup
Issued by NWS Charleston, WV

Home | Current Version | Previous Version | Text Only | Print | Product List | Glossary Off
Versions: 1 2 3 4 5 6 7 8 9 10 11 12 13 14 15 16 17 18 19 20 21 22 23 24 25 26 27

000
ASUS41 KRLX 220310
RWRRLX
West Virginia Regional Weather Roundup
National Weather Service Charleston WV
1100 PM EDT TUE OCT 21 2014

Note: "fair" indicates few or no clouds below 12,000 feet with no
significant weather and/or obstructions to visibility.

WVZ003-220400-
Northern Panhandle of West Virginia

CITY           SKY/WX    TMP DP  RH WIND       PRES   REMARKS
WHEELING       CLOUDY    46  43  89 NW6       30.05R
$$

WVZ009-220400-
Northwest West Virginia

CITY           SKY/WX    TMP DP  RH WIND       PRES   REMARKS
PARKERSBURG    CLOUDY    47  41  80 NW7       30.12R
$$

WVZ006-220400-
Western West Virginia

CITY           SKY/WX    TMP DP  RH WIND       PRES   REMARKS
HUNTINGTON     PTCLDY    45  42  89 NW3       30.13R
$$

WVZ015-220400-
West Central West Virginia

CITY           SKY/WX    TMP DP  RH WIND       PRES   REMARKS
CHARLESTON     CLOUDY    48  44  86 N7        30.09S
$$

WVZ022-031-220400-
North Central West Virginia

CITY           SKY/WX    TMP DP  RH WIND       PRES   REMARKS
CLARKSBURG     CLOUDY    47  44  90 W5        30.04R
MORGANTOWN     CLOUDY    48  44  86 NW5       30.04R
$$

WVZ025-035-042-045-220400-
Southern West Virginia

CITY           SKY/WX    TMP DP  RH WIND       PRES   REMARKS
BECKLEY        LGT RAIN  43  40  89 N12       30.05R
LOGAN          CLOUDY    45  45 100 N6        30.09R
BLUEFIELD      CLOUDY    44  39  82 NW10G20   30.05R
LEWISBURG      CLOUDY    46  40  78 NW3       30.02S
$$

WVZ047-220400-
Northern Mountains of West Virginia

CITY           SKY/WX    TMP DP  RH WIND       PRES   REMARKS
ELKINS         LGT RAIN  45  44  97 NW7       30.02R FOG
$$

WVZ052-220400-
Eastern Panhandle of West Virginia

CITY           SKY/WX    TMP DP  RH WIND       PRES   REMARKS
MARTINSBURG    MOCLDY    53  44  71 NW7       29.95R
PETERSBURG     CLOUDY   N/A N/A N/A CALM      29.99R
$$



USA.gov is the U.S. government's official web portal to all federal, state and local government web resources and services.